Amritsar, India

11:15 AM IST on May 23, 2017 (GMT +0530)
Amritsar

Weather History for VIAR - February, 2013

Change the Weather History Date:

Thursday, February 14, 2013

  Actual Average Record
Temperature  
Mean Temperature 58 °F -  
Max Temperature 72 °F 68 °F 78 °F (2006)
Min Temperature 45 °F 47 °F 35 °F (2008)
Degree Days  
Heating Degree Days 6    
Growing Degree Days 8 (Base 50)    
Moisture  
Dew Point 56 °F    
Average Humidity 91    
Maximum Humidity 100    
Minimum Humidity 55    
Precipitation  
Precipitation 0.00 in - - ()
Sea Level Pressure  
Sea Level Pressure 29.97 in    
Wind  
Wind Speed 1 mph ()    
Max Wind Speed 9 mph    
Max Gust Speed -    
Visibility 1.6 miles    
Events      
Averages and records for this station are not official NWS values.
T = Trace of Precipitation, MM = Missing Value Source: Averaged Metar Reports

Daily Weather History Graph

Daily Weather History Graph

Search for Another Location

Airport or City:

Trip Planner

Search our weather history database for the weather conditions in past years. The results will help you decide how hot, cold, wet, or windy it might be!

Date:

Astronomy

Feb. 14, 2013 Rise Set
Actual Time 7:13 AM IST 6:16 PM IST
Civil Twilight 6:48 AM IST 6:41 PM IST
Nautical Twilight 6:19 AM IST 7:09 PM IST
Astronomical Twilight 5:51 AM IST 7:38 PM IST
Moon 9:19 AM IST (2/14) 10:30 PM IST (2/14)
Length of Visible Light 11h 52m
Length of Day
11h 03m
Waxing Crescent, 18% of the Moon is Illuminated
Feb 14
Waxing Crescent
Feb 18
First Quarter
Feb 26
Full
Mar 5
Last Quarter
Mar 12
New

Hourly Weather History & Observations

Time (IST) Temp. Dew Point Humidity Pressure Visibility Wind Dir Wind Speed Gust Speed Precip Events Conditions
12:00 AM 51.8 °F 51.8 °F 100% 30.01 in 1.6 mi Calm Calm - N/A   Partly Cloudy
12:30 AM 51.8 °F 51.8 °F 100% 30.01 in 1.6 mi Calm Calm - N/A   Partly Cloudy
1:00 AM 50.0 °F 50.0 °F 100% 30.01 in 1.6 mi Calm Calm - N/A   Partly Cloudy
1:30 AM 50.0 °F 50.0 °F 100% 30.01 in 1.6 mi Calm Calm - N/A   Partly Cloudy
2:00 AM 50.0 °F 50.0 °F 100% 30.01 in 1.6 mi Calm Calm - N/A   Partly Cloudy
2:30 AM 50 °F - % 30.01 in 1 mi Calm Calm - -   Mist
3:30 AM 50.0 °F 50.0 °F 100% 29.98 in 1.0 mi Calm Calm - N/A   Partly Cloudy
4:00 AM 48.2 °F 48.2 °F 100% 29.98 in 1.0 mi Calm Calm - N/A   Partly Cloudy
4:30 AM 50.0 °F 50.0 °F 100% 29.98 in 1.0 mi Calm Calm - N/A   Partly Cloudy
5:00 AM 48.2 °F 48.2 °F 100% 29.98 in 1.0 mi Calm Calm - N/A   Partly Cloudy
5:30 AM 47 °F 47 °F 99% 29.99 in 1 mi Calm Calm - -   Mist
5:30 AM 46.4 °F 46.4 °F 100% 29.98 in 1.2 mi Calm Calm - N/A   Partly Cloudy
6:00 AM 48.2 °F 48.2 °F 100% 29.98 in 1.2 mi Calm Calm - N/A   Partly Cloudy
6:30 AM 46.4 °F 46.4 °F 100% 29.98 in 1.2 mi Calm Calm - N/A   Scattered Clouds
7:00 AM 48.2 °F 48.2 °F 100% 29.98 in 1.2 mi Calm Calm - N/A   Scattered Clouds
7:30 AM 51.8 °F 51.8 °F 100% 29.98 in 1.2 mi Calm Calm - N/A   Scattered Clouds
8:00 AM 50.0 °F 50.0 °F 100% 29.98 in 1.2 mi Calm Calm - N/A   Scattered Clouds
8:30 AM 53 °F 53 °F 100% 30.01 in 1 mi NW 4.6 mph - -   Mist
8:30 AM 53.6 °F 53.6 °F 100% 30.01 in 1.2 mi NNW 4.6 mph - N/A   Mostly Cloudy
9:00 AM 55.4 °F 55.4 °F 100% 30.01 in 0.9 mi Variable 2.3 mph - N/A   Mostly Cloudy
9:30 AM 57.2 °F 57.2 °F 100% 30.01 in 0.9 mi Variable 2.3 mph - N/A   Mostly Cloudy
10:00 AM 59.0 °F 59.0 °F 100% 30.01 in 0.9 mi Calm Calm - N/A   Mostly Cloudy
10:30 AM 59.0 °F 59.0 °F 100% 30.01 in 0.9 mi Calm Calm - N/A   Mostly Cloudy
11:00 AM 62.6 °F 62.6 °F 100% 30.01 in 0.9 mi Calm Calm - N/A   Mostly Cloudy
11:30 AM 63 °F 63 °F 98% 30.01 in 1 mi Calm Calm - -   Mist
11:30 AM 62.6 °F 62.6 °F 100% 30.01 in 1.1 mi Calm Calm - N/A   Mostly Cloudy
12:00 PM 66.2 °F 62.6 °F 88% 30.01 in 1.2 mi Calm Calm - N/A   Mostly Cloudy
1:00 PM 69.8 °F 55.4 °F 60% 30.01 in 2.5 mi WNW 5.8 mph - N/A   Haze
1:30 PM 69.8 °F 55.4 °F 60% 29.98 in 2.5 mi West 6.9 mph - N/A   Haze
2:00 PM 68.0 °F 57.2 °F 68% 29.98 in 2.5 mi West 5.8 mph - N/A   Haze
2:30 PM 70 °F 57 °F 55% 29.94 in 2 mi WNW 6.9 mph - -   Smoke
2:30 PM 69.8 °F 57.2 °F 64% 29.95 in 3.1 mi WNW 6.9 mph - N/A   Smoke
3:00 PM 71.6 °F 55.4 °F 57% 29.95 in 3.1 mi WNW 8.1 mph - N/A   Smoke
3:30 PM 71.6 °F 59.0 °F 64% 29.95 in 3.1 mi West 9.2 mph - N/A   Smoke
4:00 PM 69.8 °F 59.0 °F 68% 29.95 in 2.5 mi West 8.1 mph - N/A   Smoke
4:30 PM 68.0 °F 62.6 °F 83% 29.95 in 2.5 mi West 6.9 mph - N/A   Smoke
5:00 PM 68.0 °F 59.0 °F 73% 29.92 in 2.5 mi WNW 6.9 mph - N/A   Smoke
5:30 PM 67 °F 61 °F 76% 29.92 in 2 mi 3.5 mph - -   Haze
5:30 PM 66.2 °F 60.8 °F 83% 29.92 in 2.5 mi Variable 3.5 mph - N/A   Haze
6:00 PM 64.4 °F 62.6 °F 94% 29.92 in 2.5 mi Variable 1.2 mph - N/A   Mostly Cloudy
6:30 PM 64.4 °F 60.8 °F 88% 29.92 in 2.5 mi Variable 3.5 mph - N/A   Mostly Cloudy
7:00 PM 66.2 °F 59.0 °F 78% 29.92 in 2.5 mi NNW 6.9 mph - N/A   Mostly Cloudy
7:30 PM 64.4 °F 59.0 °F 83% 29.92 in 2.5 mi NW 5.8 mph - N/A   Mostly Cloudy
8:00 PM 60.8 °F 60.8 °F 100% 29.92 in 2.5 mi WSW 4.6 mph - N/A   Mostly Cloudy
8:30 PM 61 °F 61 °F 100% 29.93 in 1 mi Calm Calm - -   Mist
9:00 PM 60.8 °F 60.8 °F 100% 29.95 in 1.9 mi Calm Calm - N/A   Mostly Cloudy
9:30 PM 59.0 °F 59.0 °F 100% 29.95 in 1.9 mi Calm Calm - N/A   Mostly Cloudy
10:00 PM 59.0 °F 57.2 °F 94% 29.95 in 1.2 mi Calm Calm - N/A   Mostly Cloudy
10:30 PM 55.4 °F 55.4 °F 100% 29.95 in 1.2 mi Calm Calm - N/A   Mostly Cloudy
11:00 PM 55.4 °F 55.4 °F 100% 29.95 in 1.2 mi Calm Calm - N/A   Mostly Cloudy
11:30 PM 54 °F 54 °F 100% 29.95 in 1 mi Calm Calm - -   Mist